Temp
-5 -5 -5 -5 -6 -6 -6 -6 -6 -7 -7 -7 -7 -7 -7 -7 -7 -7 -7 -6 -6 -6
-5 -5 -5 -5 -6 -6 -6 -7 -7 -7 -7 -7 -8 -8 -8 -8 -7 -7 -7 -7 -7 -6
-5 -5 -6 -6 -6 -7 -7 -7 -7 -8 -8 -8 -8 -8 -8 -8 -8 -8 -8 -7 -7 -7
-6 -6 -7 -7 -7 -8 -8 -8 -8 -8 -8 -8 -8 -8 -8 -8 -8 -8 -8 -8 -7 -7
-7 -7 -7 -8 -8 -8 -8 -8 -9 -9 -9 -9 -9 -9 -8 -8 -8 -8 -8 -8 -8 -7
-8 -8 -8 -8 -9 -9 -9 -9 -9 -9 -9 -9 -9 -9 -9 -9 -9 -8 -8 -8 -8 -8
-9 -9 -9 -9 -9 -9 -9 -9 -9 -9 -9 -9 -9 -9 -9 -9 -8 -8 -8 -8 -8 -8
-10 -10 -10 -10 -10 -10 -10 -10 -10 -10 -10 -10 -9 -9 -8 -8 -8 -8 -8 -8 -8 -7
-10 -10 -10 -10 -10 -10 -10 -10 -10 -10 -10 -10 -9 -8 -7 -6 -6 -6 -6 -6 -6 -7
-11 -11 -11 -11 -11 -11 -11 -11 -11 -10 -10 -9 -9 -7 -6 -5 -5 -5 -5 -5 -5 -5
-11 -11 -11 -12 -11 -11 -11 -11 -10 -10 -9 -8 -8 -7 -6 -5 -5 -5 -5 -5 -5 -5
-12 -12 -12 -12 -12 -12 -11 -11 -10 -9 -8 -8 -8 -7 -6 -5 -5 -5 -5 -5 -5 -5
-12 -13 -13 -12 -12 -11 -11 -10 -9 -9 -8 -8 -7 -6 -5 -5 -5 -5 -5 -4 -4 -4
-12 -13 -12 -12 -12 -11 -10 -9 -9 -9 -8 -7 -6 -6 -5 -5 -4 -4 -4 -3 -3 -3
Height
869 866 864 859 854 850 845 839 836 832 829 826 822 818 814 810 807 803 799 796 794 792
864 862 857 853 849 844 839 834 831 826 821 818 815 811 806 802 798 795 792 788 786 783
862 858 854 850 843 837 832 828 823 818 813 809 806 803 800 794 790 786 782 780 777 774
857 853 850 845 838 834 827 822 816 812 807 801 797 794 790 785 780 776 772 771 769 764
853 848 843 838 834 827 820 815 809 805 799 793 789 784 780 773 770 766 762 760 758 754
848 844 838 833 825 821 814 808 802 797 791 785 779 773 768 763 758 755 751 749 747 744
842 837 832 825 819 812 807 800 794 788 781 775 769 763 757 752 746 742 738 735 733 730
836 831 823 818 811 803 799 793 786 779 773 766 759 752 746 739 732 727 721 718 716 714
834 828 823 815 806 796 790 784 777 771 764 756 749 741 736 728 720 714 709 704 701 696
829 820 813 808 802 791 783 776 769 762 754 747 738 731 723 716 707 700 694 689 684 680
826 821 808 801 796 786 776 768 761 753 745 737 727 720 711 703 695 688 681 676 671 666
819 811 806 796 788 780 771 761 753 745 736 728 717 709 700 692 683 673 664 658 654 650
815 806 800 792 782 774 766 756 747 737 728 719 708 699 690 681 672 660 651 642 635 630
809 801 793 786 777 768 760 751 741 730 720 711 702 691 682 672 661 649 637 627 618 610
Wind_Speed
25 26 28 29 31 32 33 33 33 32 31 33 34 34 33 31 30 28 28 29 28 28
27 28 29 30 32 33 34 33 30 33 34 34 34 34 33 32 33 31 30 31 31 31
28 29 30 32 33 34 36 35 37 36 35 35 34 33 32 33 32 32 32 31 31 32
30 31 32 33 34 35 36 36 36 36 35 34 34 34 33 35 35 35 36 34 34 36
31 32 33 34 36 36 36 37 35 36 35 35 35 35 35 37 36 36 37 36 35 37
32 33 35 36 37 36 36 36 36 34 35 36 36 37 37 38 39 38 38 38 37 37
32 32 34 36 36 35 35 36 36 35 36 37 38 38 38 38 39 40 40 40 40 40
30 31 32 34 34 35 34 36 36 36 36 37 37 37 36 37 38 39 40 42 43 43
31 32 34 35 36 35 35 35 35 36 36 37 37 39 41 43 43 42 42 41 40 40
30 31 34 36 36 35 35 35 36 37 37 37 41 43 43 44 44 41 39 38 36 36
30 34 35 35 36 36 35 35 37 37 39 39 41 42 44 44 44 40 39 38 39 40
33 34 36 36 37 38 36 37 38 38 39 41 43 42 45 45 41 38 39 41 41 40
35 32 34 37 37 38 37 36 37 40 41 40 42 42 43 44 40 38 38 40 41 43
37 33 34 36 38 36 36 35 37 39 39 36 38 40 42 41 42 38 35 35 34 37
Wind_Direction
334 332 328 327 322 319 316 313 312 308 303 300 297 295 292 287 283 280 275 271 266 264
332 330 325 323 321 319 316 309 302 301 301 297 293 290 288 284 282 280 277 273 270 265
328 327 324 322 318 316 313 310 308 303 298 294 291 288 285 281 280 278 275 273 272 269
328 327 324 316 314 311 309 306 300 296 294 292 290 287 282 279 278 275 273 270 268 268
327 324 321 317 314 312 304 302 296 295 293 290 287 285 282 278 275 272 270 269 267 266
327 324 317 313 312 306 302 299 297 294 291 290 287 285 282 279 277 273 270 269 267 267
319 314 311 309 305 303 302 299 298 295 292 291 289 287 284 281 277 273 269 265 261 260
311 310 309 305 305 306 304 300 299 297 296 293 291 288 287 283 277 271 266 261 258 255
319 317 313 311 309 308 305 303 303 300 297 296 293 294 296 292 286 280 274 270 267 257
318 313 312 311 309 308 307 307 305 302 300 297 295 298 299 296 292 288 283 278 274 268
318 315 315 313 310 309 311 309 306 305 303 300 296 303 303 301 299 294 289 282 275 268
321 316 314 311 310 312 312 309 308 308 306 303 299 302 306 306 299 291 282 277 271 264
321 314 311 312 311 311 309 308 310 308 306 303 301 304 310 309 302 293 287 280 271 265
327 319 318 313 313 312 313 312 310 308 308 307 308 310 313 312 309 303 301 294 287 277